Orbital Elements at Epoch 2459000.5 (2020-May-31.0) TDB
Reference: JPL 16 (heliocentric ecliptic J2000)
Element | Value | Uncertainty (1-sigma) | Units |
e | .09617052720929535 | 5.5086e-08 | |
a | 3.162463199270942 | 2.3953e-08 | au |
q | 2.858327446117061 | 1.8056e-07 | au |
i | 8.977834130633711 | 5.8455e-06 | deg |
node | 347.822123345959 | 2.9548e-05 | deg |
peri | 50.290214202713 | 3.9534e-05 | deg |
M | 203.5084396202571 | 2.821e-05 | deg |
tp | 2459893.445735862025 (2022-Nov-09.94573586) | 0.00016699 | TDB |
period | 2054.17125454096 5.62 | 2.3338e-05 6.39e-08 | d yr |
n | .1752531582769365 | 1.9911e-09 | deg/d |
Q | 3.466598952424823 | 2.6256e-08 | au |
|
| | Orbit Determination Parameters
Additional Information
|